Regional Weather Roundup
Issued by NWS

Home | Current Version | Previous Version | Graphics & Text | Print | Product List | Glossary On
Versions: 1 2 3 4 5 6 7 8 9 10 11 12 13 14 15 16 17 18 19 20 21 22 23 24 25 26 27 28 29 30 31 32 33 34 35 36 37 38 39 40 41 42 43 44 45 46 47 48 49 50
000
ASUS43 KIND 230609
RWRIN

WEATHER ROUNDUP FOR INDIANA
NATIONAL WEATHER SERVICE INDIANAPOLIS IN
200 AM EDT WED APR 23 2014

NOTE: "FAIR" INDICATES FEW OR NO CLOUDS BELOW 12,000 FEET WITH NO
SIGNIFICANT WEATHER AND/OR OBSTRUCTIONS TO VISIBILITY.

* - STATION DOES NOT REPORT WEATHER SUCH AS PRECIPITATION OR FOG.

+ - STATION NOT QUALITY CONTROLLED BY THE NATIONAL WEATHER SERVICE.
    USE DATA WITH CAUTION...ESPECIALLY DEWPOINT AND RELATIVE
    HUMIDITY OBSERVATIONS.

INZ001>003-010>013-019-020-230700-
NORTHWEST INDIANA

CITY           SKY/WX    TMP DP  RH WIND       PRES   REMARKS
GARY /AIRPORT/ FAIR      40  30  66 N10       30.11R
LA PORTE +     FAIR      35  28  78 N7        30.07R WCI  29
6HR MIN TEMP:  34; 6HR MAX TEMP:  43;

MICHIGAN CITY+ FAIR      36  30  80 N8        30.08R
MONTICELLO +   FAIR      38  28  67 N8        30.05S
RENSSELAER +   FAIR      36  30  80 N5        30.08R
VALPARAISO     FAIR      36  28  73 NW6       30.08R
6HR MIN TEMP:  35; 6HR MAX TEMP:  45;


$$

LMZ046-743>745-230700-
SOUTHERN LAKE MICHIGAN

STATION/POSITION TIME  TEMP WIND        PRES
                       AIR  DIR/SP/G
                 (UTC) (F)  (DEG/KT/KT) (MB)
MICHIGAN CITY    0600   38  330/ 16/ 18   N/A

$$

INZ004-005-014>016-021>024-230700-
NORTH CENTRAL INDIANA

CITY           SKY/WX    TMP DP  RH WIND       PRES   REMARKS
GOSHEN         FAIR      38  27  64 N9        30.03R
6HR MIN TEMP:  38; 6HR MAX TEMP:  48;

LOGANSPORT +   FAIR      37  28  70 N9        30.06S
PERU/GRISSOM   FAIR      39  31  71 NW10      30.04R
6HR MIN TEMP:  39; 6HR MAX TEMP:  51;

ROCHESTER +    FAIR      37  30  75 N6        30.04F
SOUTH BEND     FAIR      37  27  67 NW7       30.05R
6HR MIN TEMP:  36; 6HR MAX TEMP:  46;

WARSAW +       FAIR      36  28  75 N6        30.03S

$$

INZ006>009-017-018-025>027-230700-
NORTHEAST INDIANA

CITY           SKY/WX    TMP DP  RH WIND       PRES   REMARKS
ANGOLA *+      CLEAR     37  28  70 NW6       30.00R
AUBURN +       FAIR      37  28  70 NW8       30.01R
FORT WAYNE     FAIR      39  29  67 NW10      30.01R
6HR MIN TEMP:  38; 6HR MAX TEMP:  49;


$$

INZ028-029-035-036-043>045-051>053-230700-
WEST CENTRAL INDIANA

CITY           SKY/WX    TMP DP  RH WIND       PRES   REMARKS
GREENCASTLE +  FAIR      41  32  70 N6        30.05R
LAFAYETTE      FAIR      39  28  64 N8        30.06R
6HR MIN TEMP:  39; 6HR MAX TEMP:  56;

TERRE HAUTE    FAIR      46  34  62 NE10      30.04R
6HR MIN TEMP:  44; 6HR MAX TEMP:  61;


$$

INZ030>032-037>040-046>048-054>057-064-065-230700-
CENTRAL INDIANA

CITY           SKY/WX    TMP DP  RH WIND       PRES   REMARKS
CP ATTERBURY + FAIR      43  32  65 N3        30.03R
INDIANAPOLIS   FAIR      42  31  64 N9        30.03R
6HR MIN TEMP:  42; 6HR MAX TEMP:  53;

-EAGLE CREEK   FAIR      43  31  62 N10       30.03R
6HR MIN TEMP:  43; 6HR MAX TEMP:  53;

KOKOMO *+      FAIR      39  27  60 N10       30.04R
MARION +       FAIR      40  27  60 NW7       30.02R
MT COMFORT *+  FAIR      39  34  81 N9        30.02R
SHELBYVILLE    FAIR      42  33  70 NW7       30.01R
6HR MIN TEMP:  42; 6HR MAX TEMP:  56;

ZIONSVILLE +   FAIR      40  31  69 NW7       30.04R
6HR MIN TEMP:  40; 6HR MAX TEMP:  53;


$$

INZ033-034-041-042-049-050-058-059-230700-
EAST CENTRAL INDIANA

CITY           SKY/WX    TMP DP  RH WIND       PRES   REMARKS
MUNCIE         FAIR      39  31  72 NW8       30.00R
6HR MIN TEMP:  38; 6HR MAX TEMP:  50;


$$

INZ060-061-067>069-081>083-085>088-230700-
SOUTHWEST INDIANA

CITY           SKY/WX    TMP DP  RH WIND       PRES   REMARKS
EVANSVILLE     FAIR      54  35  48 N3        29.99R
6HR MIN TEMP:  54; 6HR MAX TEMP:  67;

HUNTINGBURG *+ FAIR      48  34  57 NE9       30.00R
6HR MIN TEMP:  48; 6HR MAX TEMP:  63;

WASHINGTON +   FAIR      46  38  75 N7        30.00R
6HR MIN TEMP:  46; 6HR MAX TEMP:  63;


$$

INZ062-063-066-070>080-084-089>092-230700-
SOUTH CENTRAL AND SOUTHEAST INDIANA

CITY           SKY/WX    TMP DP  RH WIND       PRES   REMARKS
BLOOMINGTON    FAIR      46  31  55 NE6       30.02R
6HR MIN TEMP:  46; 6HR MAX TEMP:  61;


$$




USA.gov is the U.S. government's official web portal to all federal, state and local government web resources and services.